Terminal Aerodrome Forecast
Issued by NWS Cheyenne, WY

Home | Current Version | Previous Version | Text Only | Print | Product List | Glossary On
Versions: 1 2 3 4 5 6 7 8 9 10 11 12 13 14 15 16 17 18 19 20 21 22 23 24 25 26 27 28 29 30 31 32 33 34 35 36 37 38
000
FTUS45 KCYS 271144
TAFCYS
TAF
KCYS 271144Z 2712/2812 25008KT P6SM SCT200
     FM271600 24010KT P6SM BKN150
     FM280000 14006KT P6SM -RA OVC050
     FM281000 12006KT P6SM -RA OVC015=

USA.gov is the U.S. government's official web portal to all federal, state and local government web resources and services.